Location: Home
(42.5358°N, 72.7383°W)
Time: 15:45:25
(UTC-05:00)

N. Korean satellite - Pass Details

Date: 01 November 2021
Orbit: 446 x 495 km, 97.3° (Epoch: 07 December)

Event Time Altitude Azimuth Distance (km) Brightness Sun altitude
Rises 05:38:07 0° 20° (NNE) 2,576 10.5 -20.1°
Reaches altitude 10° 05:40:21 10° 30° (NNE) 1,682 9.6 -19.7°
Maximum altitude 05:43:40 34° 97° (E) 812 8.3 -19.1°
Drops below altitude 10° 05:46:56 10° 164° (SSE) 1,644 9.5 -18.5°
Sets 05:49:05 0° 174° (S) 2,507 10.3 -18.1°
